Time,TemperatureF,DewpointF,PressureIn,WindDirection,WindDirectionDegrees,WindSpeedMPH,WindSpeedGustMPH,Humidity,HourlyPrecipIn,Conditions,Clouds,dailyrainin,SoftwareType,DateUTC
2013-10-18 00:00:00,59.5,59.0,29.02,South,180,0.0,0.0,100,0.00,,,0.20,Rainwise IP-100,2013-10-18 04:00:00,
2013-10-18 00:01:00,59.5,59.0,29.02,South,180,0.0,0.0,100,0.00,,,0.00,Rainwise IP-100,2013-10-18 04:01:00,
2013-10-18 00:06:00,59.4,59.0,29.03,South,180,0.0,0.0,100,0.00,,,0.00,Rainwise IP-100,2013-10-18 04:06:00,
2013-10-18 00:11:00,59.2,59.0,29.02,South,180,0.0,0.0,100,0.00,,,0.00,Rainwise IP-100,2013-10-18 04:11:00,
2013-10-18 00:16:00,59.1,59.0,29.02,South,180,0.0,0.0,100,0.00,,,0.00,Rainwise IP-100,2013-10-18 04:16:00,
2013-10-18 00:21:00,59.0,59.0,29.02,South,180,0.0,0.0,100,0.00,,,0.00,Rainwise IP-100,2013-10-18 04:21:00,
2013-10-18 00:26:00,59.0,59.0,29.03,South,180,0.0,0.0,100,0.00,,,0.00,Rainwise IP-100,2013-10-18 04:26:00,
2013-10-18 00:31:00,58.9,59.0,29.02,South,180,0.0,0.0,100,0.00,,,0.00,Rainwise IP-100,2013-10-18 04:31:00,
2013-10-18 00:36:00,58.7,59.0,29.02,South,180,0.0,0.0,100,0.00,,,0.00,Rainwise IP-100,2013-10-18 04:36:00,
2013-10-18 00:41:00,58.5,59.0,29.02,South,180,0.0,1.0,100,0.00,,,0.00,Rainwise IP-100,2013-10-18 04:41:00,
2013-10-18 00:46:00,58.4,58.0,29.02,South,180,0.0,0.0,100,0.00,,,0.00,Rainwise IP-100,2013-10-18 04:46:00,
2013-10-18 00:51:00,58.2,58.0,29.02,South,180,0.0,0.0,100,0.00,,,0.00,Rainwise IP-100,2013-10-18 04:51:00,
2013-10-18 00:56:00,58.0,58.0,29.02,South,180,0.0,1.0,100,0.00,,,0.00,Rainwise IP-100,2013-10-18 04:56:00,
2013-10-18 01:01:00,57.8,57.0,29.02,South,180,0.0,0.0,100,0.00,,,0.00,Rainwise IP-100,2013-10-18 05:01:00,
2013-10-18 01:06:00,57.7,57.0,29.02,South,180,0.0,0.0,100,0.00,,,0.00,Rainwise IP-100,2013-10-18 05:06:00,
2013-10-18 01:11:00,57.5,57.0,29.02,South,180,0.0,0.0,100,0.00,,,0.00,Rainwise IP-100,2013-10-18 05:11:00,
2013-10-18 01:16:00,57.3,57.0,29.02,South,180,0.0,1.0,100,0.00,,,0.00,Rainwise IP-100,2013-10-18 05:16:00,
2013-10-18 01:21:00,57.2,57.0,29.02,South,180,0.0,1.0,100,0.00,,,0.00,Rainwise IP-100,2013-10-18 05:21:00,
2013-10-18 01:26:00,57.1,57.0,29.02,South,180,0.0,1.0,100,0.00,,,0.00,Rainwise IP-100,2013-10-18 05:26:00,
2013-10-18 01:31:00,57.0,57.0,29.02,South,180,0.0,0.0,100,0.00,,,0.00,Rainwise IP-100,2013-10-18 05:31:00,
2013-10-18 01:36:00,56.7,56.0,29.02,South,180,0.0,0.0,99,0.00,,,0.00,Rainwise IP-100,2013-10-18 05:36:00,
2013-10-18 01:41:00,56.6,56.0,29.02,South,180,0.0,0.0,99,0.00,,,0.00,Rainwise IP-100,2013-10-18 05:41:00,
2013-10-18 01:46:00,56.5,56.0,29.02,South,180,0.0,0.0,99,0.00,,,0.00,Rainwise IP-100,2013-10-18 05:46:00,
2013-10-18 01:51:00,56.4,56.0,29.02,South,180,0.0,1.0,99,0.00,,,0.00,Rainwise IP-100,2013-10-18 05:51:00,
2013-10-18 01:56:00,56.3,56.0,29.02,South,180,0.0,0.0,99,0.00,,,0.00,Rainwise IP-100,2013-10-18 05:56:00,
2013-10-18 02:01:00,56.3,56.0,29.02,South,180,0.0,0.0,99,0.00,,,0.00,Rainwise IP-100,2013-10-18 06:01:00,
2013-10-18 02:06:00,56.2,56.0,29.02,South,180,0.0,0.0,99,0.00,,,0.00,Rainwise IP-100,2013-10-18 06:06:00,
2013-10-18 02:11:00,56.1,56.0,29.02,South,180,0.0,0.0,99,0.00,,,0.00,Rainwise IP-100,2013-10-18 06:11:00,
2013-10-18 02:16:00,55.9,56.0,29.02,South,180,0.0,0.0,99,0.00,,,0.00,Rainwise IP-100,2013-10-18 06:16:00,
2013-10-18 02:21:00,55.9,56.0,29.02,South,180,0.0,0.0,99,0.00,,,0.00,Rainwise IP-100,2013-10-18 06:21:00,
2013-10-18 02:26:00,55.8,56.0,29.02,South,180,0.0,0.0,99,0.00,,,0.00,Rainwise IP-100,2013-10-18 06:26:00,
2013-10-18 02:31:00,55.6,56.0,29.02,South,180,0.0,0.0,99,0.00,,,0.00,Rainwise IP-100,2013-10-18 06:31:00,
2013-10-18 02:36:00,55.4,55.0,29.02,South,180,0.0,0.0,99,0.00,,,0.00,Rainwise IP-100,2013-10-18 06:36:00,
2013-10-18 02:41:00,55.4,55.0,29.02,South,180,0.0,0.0,99,0.00,,,0.00,Rainwise IP-100,2013-10-18 06:41:00,
2013-10-18 02:46:00,55.3,55.0,29.02,South,180,0.0,0.0,99,0.00,,,0.00,Rainwise IP-100,2013-10-18 06:46:00,
2013-10-18 02:51:00,55.2,55.0,29.02,South,180,0.0,0.0,99,0.00,,,0.00,Rainwise IP-100,2013-10-18 06:51:00,
2013-10-18 02:56:00,55.1,55.0,29.02,South,180,0.0,0.0,99,0.00,,,0.00,Rainwise IP-100,2013-10-18 06:56:00,
2013-10-18 03:01:00,55.0,55.0,29.02,South,180,0.0,0.0,99,0.00,,,0.00,Rainwise IP-100,2013-10-18 07:01:00,
2013-10-18 03:06:00,54.9,55.0,29.02,South,180,0.0,0.0,99,0.00,,,0.00,Rainwise IP-100,2013-10-18 07:06:00,
2013-10-18 03:11:00,54.8,54.0,29.02,South,180,0.0,0.0,99,0.00,,,0.00,Rainwise IP-100,2013-10-18 07:11:00,
2013-10-18 03:16:00,54.7,54.0,29.02,South,180,0.0,0.0,99,0.00,,,0.00,Rainwise IP-100,2013-10-18 07:16:00,
2013-10-18 03:21:00,54.7,54.0,29.02,South,180,0.0,0.0,99,0.00,,,0.00,Rainwise IP-100,2013-10-18 07:21:00,
2013-10-18 03:26:00,54.6,54.0,29.02,South,180,0.0,0.0,99,0.00,,,0.00,Rainwise IP-100,2013-10-18 07:26:00,
2013-10-18 03:31:00,54.5,54.0,29.02,South,180,0.0,0.0,99,0.00,,,0.00,Rainwise IP-100,2013-10-18 07:31:00,
2013-10-18 03:36:00,54.5,54.0,29.02,South,180,0.0,0.0,100,0.00,,,0.00,Rainwise IP-100,2013-10-18 07:36:00,
2013-10-18 03:41:00,54.5,54.0,29.02,South,180,0.0,0.0,100,0.00,,,0.00,Rainwise IP-100,2013-10-18 07:41:00,
2013-10-18 03:46:00,54.4,54.0,29.02,South,180,0.0,0.0,100,0.00,,,0.00,Rainwise IP-100,2013-10-18 07:46:00,
2013-10-18 03:51:00,54.3,54.0,29.02,South,180,0.0,0.0,100,0.00,,,0.00,Rainwise IP-100,2013-10-18 07:51:00,
2013-10-18 03:56:00,54.2,54.0,29.02,South,180,0.0,0.0,100,0.00,,,0.00,Rainwise IP-100,2013-10-18 07:56:00,
2013-10-18 04:01:00,54.1,54.0,29.02,South,180,0.0,1.0,100,0.00,,,0.00,Rainwise IP-100,2013-10-18 08:01:00,
2013-10-18 04:06:00,54.0,54.0,29.02,South,180,0.0,0.0,100,0.00,,,0.00,Rainwise IP-100,2013-10-18 08:06:00,
2013-10-18 04:11:00,53.9,54.0,29.02,South,180,0.0,0.0,100,0.00,,,0.00,Rainwise IP-100,2013-10-18 08:11:00,
2013-10-18 04:16:00,53.8,53.0,29.02,South,180,0.0,0.0,100,0.00,,,0.00,Rainwise IP-100,2013-10-18 08:16:00,
2013-10-18 04:21:00,53.7,53.0,29.01,South,180,0.0,2.0,100,0.00,,,0.00,Rainwise IP-100,2013-10-18 08:21:00,
2013-10-18 04:26:00,53.7,53.0,29.02,South,180,0.0,1.0,100,0.00,,,0.00,Rainwise IP-100,2013-10-18 08:26:00,
2013-10-18 04:31:00,53.6,53.0,29.02,South,180,0.0,1.0,100,0.00,,,0.00,Rainwise IP-100,2013-10-18 08:31:00,
2013-10-18 04:36:00,53.5,53.0,29.02,South,180,0.0,0.0,100,0.00,,,0.00,Rainwise IP-100,2013-10-18 08:36:00,
2013-10-18 04:41:00,53.5,53.0,29.02,South,180,1.2,1.2,100,0.00,,,0.00,Rainwise IP-100,2013-10-18 08:41:00,
2013-10-18 04:46:00,53.4,53.0,29.02,South,180,0.0,1.0,100,0.00,,,0.00,Rainwise IP-100,2013-10-18 08:46:00,
2013-10-18 04:51:00,53.3,53.0,29.02,South,180,0.0,0.0,100,0.00,,,0.00,Rainwise IP-100,2013-10-18 08:51:00,
2013-10-18 04:56:00,53.2,53.0,29.02,South,180,0.0,0.0,100,0.00,,,0.00,Rainwise IP-100,2013-10-18 08:56:00,
2013-10-18 05:01:00,53.1,53.0,29.02,South,180,0.0,0.0,100,0.00,,,0.00,Rainwise IP-100,2013-10-18 09:01:00,
2013-10-18 05:06:00,53.1,53.0,29.02,South,180,0.0,1.0,100,0.00,,,0.00,Rainwise IP-100,2013-10-18 09:06:00,
2013-10-18 05:11:00,53.0,53.0,29.03,South,180,0.0,1.0,100,0.00,,,0.00,Rainwise IP-100,2013-10-18 09:11:00,
2013-10-18 05:16:00,52.9,53.0,29.02,South,180,0.0,0.0,100,0.00,,,0.01,Rainwise IP-100,2013-10-18 09:16:00,
2013-10-18 05:21:00,52.8,53.0,29.02,South,180,0.0,0.0,100,0.06,,,0.01,Rainwise IP-100,2013-10-18 09:21:00,
2013-10-18 05:26:00,52.7,53.0,29.03,South,180,0.0,0.0,100,0.06,,,0.01,Rainwise IP-100,2013-10-18 09:26:00,
2013-10-18 05:31:00,52.7,53.0,29.03,South,180,0.0,0.0,100,0.00,,,0.01,Rainwise IP-100,2013-10-18 09:31:00,
2013-10-18 05:36:00,52.6,53.0,29.03,South,180,0.0,0.0,100,0.00,,,0.01,Rainwise IP-100,2013-10-18 09:36:00,
2013-10-18 05:41:00,52.6,53.0,29.03,South,180,0.0,0.0,100,0.00,,,0.01,Rainwise IP-100,2013-10-18 09:41:00,
2013-10-18 05:46:00,52.6,53.0,29.03,South,180,0.0,0.0,100,0.00,,,0.01,Rainwise IP-100,2013-10-18 09:46:00,
2013-10-18 05:51:00,52.7,53.0,29.03,South,180,0.0,0.0,100,0.00,,,0.01,Rainwise IP-100,2013-10-18 09:51:00,
2013-10-18 05:56:00,52.7,53.0,29.03,South,180,0.0,0.0,100,0.00,,,0.01,Rainwise IP-100,2013-10-18 09:56:00,
2013-10-18 06:01:00,52.7,53.0,29.03,South,180,0.0,0.0,100,0.00,,,0.01,Rainwise IP-100,2013-10-18 10:01:00,
2013-10-18 06:06:00,52.7,53.0,29.03,South,180,0.0,0.0,100,0.00,,,0.01,Rainwise IP-100,2013-10-18 10:06:00,
2013-10-18 06:11:00,52.7,53.0,29.03,South,180,0.0,0.0,100,0.00,,,0.01,Rainwise IP-100,2013-10-18 10:11:00,
2013-10-18 06:16:00,52.7,53.0,29.04,South,180,0.0,0.0,100,0.00,,,0.01,Rainwise IP-100,2013-10-18 10:16:00,
2013-10-18 06:21:00,52.6,53.0,29.04,South,180,0.0,0.0,100,0.00,,,0.01,Rainwise IP-100,2013-10-18 10:21:00,
2013-10-18 06:26:00,52.7,53.0,29.04,South,180,0.0,0.0,100,0.00,,,0.01,Rainwise IP-100,2013-10-18 10:26:00,
2013-10-18 06:31:00,52.6,53.0,29.03,South,180,0.0,0.0,100,0.00,,,0.01,Rainwise IP-100,2013-10-18 10:31:00,
2013-10-18 06:36:00,52.5,53.0,29.04,South,180,0.0,0.0,100,0.00,,,0.01,Rainwise IP-100,2013-10-18 10:36:00,
2013-10-18 06:41:00,52.5,53.0,29.04,South,180,0.0,0.0,100,0.00,,,0.01,Rainwise IP-100,2013-10-18 10:41:00,
2013-10-18 06:46:00,52.4,52.0,29.04,South,180,0.0,0.0,100,0.00,,,0.01,Rainwise IP-100,2013-10-18 10:46:00,
2013-10-18 06:51:00,52.4,52.0,29.05,South,180,0.0,0.0,100,0.00,,,0.01,Rainwise IP-100,2013-10-18 10:51:00,
2013-10-18 06:56:00,52.3,52.0,29.05,South,180,0.0,0.0,100,0.00,,,0.01,Rainwise IP-100,2013-10-18 10:56:00,
2013-10-18 07:01:00,52.2,52.0,29.05,South,180,0.0,0.0,100,0.00,,,0.01,Rainwise IP-100,2013-10-18 11:01:00,
2013-10-18 07:06:00,52.2,52.0,29.05,South,180,0.0,0.0,100,0.00,,,0.01,Rainwise IP-100,2013-10-18 11:06:00,
2013-10-18 07:11:00,52.3,52.0,29.05,South,180,0.0,0.0,100,0.00,,,0.01,Rainwise IP-100,2013-10-18 11:11:00,
2013-10-18 07:16:00,52.4,52.0,29.05,South,180,0.0,0.0,100,0.00,,,0.01,Rainwise IP-100,2013-10-18 11:16:00,
2013-10-18 07:21:00,52.5,53.0,29.05,South,180,0.0,0.0,100,0.00,,,0.01,Rainwise IP-100,2013-10-18 11:21:00,
2013-10-18 07:26:00,52.6,53.0,29.05,South,180,0.0,0.0,100,0.00,,,0.01,Rainwise IP-100,2013-10-18 11:26:00,
2013-10-18 07:31:00,52.7,53.0,29.05,SW,225,0.0,1.0,100,0.00,,,0.01,Rainwise IP-100,2013-10-18 11:31:00,
2013-10-18 07:36:00,52.7,53.0,29.06,SW,225,0.0,0.0,100,0.00,,,0.01,Rainwise IP-100,2013-10-18 11:36:00,
2013-10-18 07:41:00,52.8,53.0,29.06,SW,225,0.0,0.0,100,0.00,,,0.01,Rainwise IP-100,2013-10-18 11:41:00,
2013-10-18 07:46:00,52.6,53.0,29.06,North,0,0.0,1.0,100,0.00,,,0.01,Rainwise IP-100,2013-10-18 11:46:00,
2013-10-18 07:51:00,52.5,53.0,29.06,North,0,0.0,1.0,100,0.00,,,0.01,Rainwise IP-100,2013-10-18 11:51:00,
2013-10-18 07:56:00,52.5,53.0,29.06,SSW,202,0.0,1.0,100,0.00,,,0.01,Rainwise IP-100,2013-10-18 11:56:00,
2013-10-18 08:01:00,52.5,53.0,29.07,SSW,202,0.0,1.0,100,0.00,,,0.01,Rainwise IP-100,2013-10-18 12:01:00,
2013-10-18 08:06:00,52.5,53.0,29.07,SSE,157,0.0,0.0,100,0.00,,,0.01,Rainwise IP-100,2013-10-18 12:06:00,
2013-10-18 08:11:00,52.5,53.0,29.07,SSE,157,0.0,1.0,100,0.00,,,0.01,Rainwise IP-100,2013-10-18 12:11:00,
2013-10-18 08:16:00,52.5,53.0,29.07,SSE,157,0.0,1.0,100,0.00,,,0.01,Rainwise IP-100,2013-10-18 12:16:00,
2013-10-18 08:21:00,52.5,53.0,29.07,SSE,157,0.0,0.0,100,0.00,,,0.01,Rainwise IP-100,2013-10-18 12:21:00,
2013-10-18 08:26:00,52.5,53.0,29.07,ESE,112,0.0,0.0,100,0.00,,,0.01,Rainwise IP-100,2013-10-18 12:26:00,
2013-10-18 08:31:00,52.5,53.0,29.07,ESE,112,0.0,0.0,100,0.00,,,0.01,Rainwise IP-100,2013-10-18 12:31:00,
2013-10-18 08:36:00,52.4,52.0,29.08,ENE,67,0.0,0.0,100,0.00,,,0.01,Rainwise IP-100,2013-10-18 12:36:00,
2013-10-18 08:41:00,52.5,53.0,29.08,ENE,67,0.0,0.0,100,0.00,,,0.01,Rainwise IP-100,2013-10-18 12:41:00,
2013-10-18 08:46:00,52.5,53.0,29.08,ENE,67,0.0,0.0,100,0.06,,,0.02,Rainwise IP-100,2013-10-18 12:46:00,
2013-10-18 08:51:00,52.5,53.0,29.08,ENE,67,0.0,0.0,100,0.06,,,0.02,Rainwise IP-100,2013-10-18 12:51:00,
2013-10-18 08:56:00,52.5,53.0,29.08,ENE,67,0.0,0.0,100,0.00,,,0.02,Rainwise IP-100,2013-10-18 12:56:00,
2013-10-18 09:01:00,52.6,53.0,29.08,ENE,67,0.0,0.0,100,0.00,,,0.02,Rainwise IP-100,2013-10-18 13:01:00,
2013-10-18 09:06:00,52.7,53.0,29.08,SSE,157,0.0,2.0,100,0.00,,,0.02,Rainwise IP-100,2013-10-18 13:06:00,
2013-10-18 09:11:00,52.7,53.0,29.09,SSE,157,0.0,0.0,100,0.00,,,0.02,Rainwise IP-100,2013-10-18 13:11:00,
2013-10-18 09:16:00,52.7,53.0,29.08,South,180,0.0,0.0,100,0.00,,,0.02,Rainwise IP-100,2013-10-18 13:16:00,
2013-10-18 09:21:00,52.8,53.0,29.08,South,180,0.0,0.0,100,0.00,,,0.02,Rainwise IP-100,2013-10-18 13:21:00,
2013-10-18 09:26:00,53.0,53.0,29.09,South,180,0.0,2.0,100,0.00,,,0.02,Rainwise IP-100,2013-10-18 13:26:00,
2013-10-18 09:31:00,53.2,53.0,29.09,South,180,0.0,2.0,100,0.00,,,0.02,Rainwise IP-100,2013-10-18 13:31:00,
2013-10-18 09:36:00,53.4,53.0,29.09,South,180,0.0,0.0,100,0.00,,,0.02,Rainwise IP-100,2013-10-18 13:36:00,
2013-10-18 09:41:00,53.6,53.0,29.08,South,180,0.0,0.0,100,0.00,,,0.02,Rainwise IP-100,2013-10-18 13:41:00,
2013-10-18 09:46:00,53.7,53.0,29.08,SSW,202,1.2,0.0,99,0.00,,,0.02,Rainwise IP-100,2013-10-18 13:46:00,
2013-10-18 09:51:00,54.0,54.0,29.09,SSW,202,0.0,1.0,99,0.00,,,0.02,Rainwise IP-100,2013-10-18 13:51:00,
2013-10-18 09:56:00,54.2,54.0,29.09,SSW,202,0.0,0.0,99,0.00,,,0.02,Rainwise IP-100,2013-10-18 13:56:00,
2013-10-18 10:01:00,54.4,54.0,29.09,SSW,202,0.0,1.0,99,0.00,,,0.02,Rainwise IP-100,2013-10-18 14:01:00,
2013-10-18 10:06:00,54.6,54.0,29.09,SSW,202,0.0,1.0,99,0.00,,,0.02,Rainwise IP-100,2013-10-18 14:06:00,
2013-10-18 10:11:00,54.8,54.0,29.10,NNE,22,0.0,2.0,98,0.00,,,0.02,Rainwise IP-100,2013-10-18 14:11:00,
2013-10-18 10:16:00,55.1,54.0,29.09,NNE,22,0.0,0.0,98,0.00,,,0.02,Rainwise IP-100,2013-10-18 14:16:00,
2013-10-18 10:21:00,55.5,55.0,29.09,NW,315,0.0,1.0,97,0.00,,,0.02,Rainwise IP-100,2013-10-18 14:21:00,
2013-10-18 10:26:00,55.9,55.0,29.09,WNW,292,0.0,0.0,97,0.00,,,0.02,Rainwise IP-100,2013-10-18 14:26:00,
2013-10-18 10:31:00,56.3,54.0,29.10,WSW,247,0.0,0.0,96,0.00,,,0.02,Rainwise IP-100,2013-10-18 14:31:00,
2013-10-18 10:36:00,56.6,55.0,29.10,WSW,247,0.0,0.0,96,0.00,,,0.02,Rainwise IP-100,2013-10-18 14:36:00,
2013-10-18 10:41:00,56.8,55.0,29.10,WSW,247,0.0,0.0,96,0.00,,,0.02,Rainwise IP-100,2013-10-18 14:41:00,
2013-10-18 10:46:00,57.1,56.0,29.10,WSW,247,0.0,0.0,95,0.00,,,0.02,Rainwise IP-100,2013-10-18 14:46:00,
2013-10-18 10:51:00,57.4,56.0,29.10,West,270,0.0,0.0,95,0.00,,,0.02,Rainwise IP-100,2013-10-18 14:51:00,
2013-10-18 10:56:00,57.7,56.0,29.10,NNE,22,0.0,3.0,94,0.00,,,0.02,Rainwise IP-100,2013-10-18 14:56:00,
2013-10-18 11:01:00,58.1,56.0,29.10,SSE,157,0.0,0.0,93,0.00,,,0.02,Rainwise IP-100,2013-10-18 15:01:00,
2013-10-18 11:06:00,58.5,56.0,29.10,SW,225,0.0,1.0,92,0.00,,,0.02,Rainwise IP-100,2013-10-18 15:06:00,
2013-10-18 11:11:00,58.8,56.0,29.10,SW,225,0.0,0.0,92,0.00,,,0.02,Rainwise IP-100,2013-10-18 15:11:00,
2013-10-18 11:16:00,59.0,56.0,29.10,SW,225,0.0,0.0,92,0.00,,,0.02,Rainwise IP-100,2013-10-18 15:16:00,
2013-10-18 11:21:00,59.2,56.0,29.10,SE,135,0.0,3.0,90,0.06,,,0.03,Rainwise IP-100,2013-10-18 15:21:00,
2013-10-18 11:26:00,59.5,56.0,29.10,SSE,157,0.0,1.0,89,0.06,,,0.03,Rainwise IP-100,2013-10-18 15:26:00,
2013-10-18 11:31:00,59.8,56.0,29.10,ENE,67,0.0,1.0,90,0.00,,,0.03,Rainwise IP-100,2013-10-18 15:31:00,
2013-10-18 11:36:00,60.1,57.0,29.10,NNE,22,0.0,1.0,90,0.00,,,0.03,Rainwise IP-100,2013-10-18 15:36:00,
2013-10-18 11:41:00,60.4,57.0,29.10,NNE,22,0.0,2.0,89,0.00,,,0.03,Rainwise IP-100,2013-10-18 15:41:00,
2013-10-18 11:46:00,60.6,57.0,29.09,NNE,22,0.0,0.0,88,0.00,,,0.03,Rainwise IP-100,2013-10-18 15:46:00,
2013-10-18 11:51:00,60.9,57.0,29.10,NNE,22,0.0,0.0,88,0.00,,,0.03,Rainwise IP-100,2013-10-18 15:51:00,
2013-10-18 11:56:00,61.3,57.0,29.09,NNE,22,1.4,0.0,87,0.00,,,0.03,Rainwise IP-100,2013-10-18 15:56:00,
2013-10-18 12:01:00,61.6,57.0,29.09,NNE,22,2.3,3.0,87,0.00,,,0.03,Rainwise IP-100,2013-10-18 16:01:00,
2013-10-18 12:06:00,61.8,57.0,29.09,East,90,0.0,2.0,86,0.00,,,0.03,Rainwise IP-100,2013-10-18 16:06:00,
2013-10-18 12:11:00,62.0,57.0,29.09,South,180,0.0,4.0,85,0.00,,,0.03,Rainwise IP-100,2013-10-18 16:11:00,
2013-10-18 12:16:00,62.2,57.0,29.09,NNW,337,0.0,2.0,84,0.00,,,0.03,Rainwise IP-100,2013-10-18 16:16:00,
2013-10-18 12:21:00,62.4,57.0,29.09,SSW,202,2.6,4.0,84,0.00,,,0.03,Rainwise IP-100,2013-10-18 16:21:00,
2013-10-18 12:26:00,62.6,57.0,29.09,South,180,0.0,4.0,83,0.00,,,0.03,Rainwise IP-100,2013-10-18 16:26:00,
2013-10-18 12:31:00,62.8,57.0,29.08,NE,45,0.0,0.0,82,0.00,,,0.03,Rainwise IP-100,2013-10-18 16:31:00,
2013-10-18 12:36:00,63.3,57.0,29.08,NNE,22,0.0,0.0,82,0.00,,,0.03,Rainwise IP-100,2013-10-18 16:36:00,
2013-10-18 12:41:00,64.1,58.0,29.08,SE,135,0.0,2.0,81,0.00,,,0.03,Rainwise IP-100,2013-10-18 16:41:00,
2013-10-18 12:46:00,64.9,58.0,29.08,ENE,67,0.0,1.0,79,0.00,,,0.03,Rainwise IP-100,2013-10-18 16:46:00,
2013-10-18 12:51:00,65.7,58.0,29.08,NNE,22,1.9,2.0,78,0.00,,,0.03,Rainwise IP-100,2013-10-18 16:51:00,
2013-10-18 12:56:00,66.3,59.0,29.08,South,180,0.0,2.0,77,0.00,,,0.03,Rainwise IP-100,2013-10-18 16:56:00,
2013-10-18 13:01:00,66.6,59.0,29.08,ESE,112,0.0,0.0,76,0.00,,,0.03,Rainwise IP-100,2013-10-18 17:01:00,
2013-10-18 13:06:00,66.9,59.0,29.07,SSW,202,0.0,2.0,74,0.00,,,0.03,Rainwise IP-100,2013-10-18 17:06:00,
2013-10-18 13:11:00,67.3,58.0,29.07,SSW,202,0.0,0.0,73,0.00,,,0.03,Rainwise IP-100,2013-10-18 17:11:00,
2013-10-18 13:16:00,67.6,58.0,29.06,West,270,0.0,2.0,72,0.00,,,0.03,Rainwise IP-100,2013-10-18 17:16:00,
2013-10-18 13:21:00,67.8,57.0,29.06,NNW,337,0.0,2.0,70,0.00,,,0.03,Rainwise IP-100,2013-10-18 17:21:00,
2013-10-18 13:26:00,68.1,57.0,29.06,WNW,292,0.0,1.0,69,0.00,,,0.03,Rainwise IP-100,2013-10-18 17:26:00,
2013-10-18 13:31:00,68.4,57.0,29.05,NNW,337,1.4,1.4,67,0.00,,,0.03,Rainwise IP-100,2013-10-18 17:31:00,
2013-10-18 13:36:00,68.8,56.0,29.05,NNW,337,0.0,1.0,66,0.00,,,0.03,Rainwise IP-100,2013-10-18 17:36:00,
2013-10-18 13:41:00,69.1,57.0,29.05,WNW,292,0.0,2.0,66,0.00,,,0.03,Rainwise IP-100,2013-10-18 17:41:00,
2013-10-18 13:46:00,69.2,57.0,29.05,NNE,22,1.2,2.0,66,0.00,,,0.03,Rainwise IP-100,2013-10-18 17:46:00,
2013-10-18 13:51:00,69.6,57.0,29.05,South,180,2.3,2.3,66,0.00,,,0.03,Rainwise IP-100,2013-10-18 17:51:00,
2013-10-18 13:56:00,70.0,58.0,29.05,SSW,202,0.0,2.0,66,0.00,,,0.03,Rainwise IP-100,2013-10-18 17:56:00,
2013-10-18 14:01:00,69.8,57.0,29.05,SSW,202,1.9,2.0,65,0.00,,,0.03,Rainwise IP-100,2013-10-18 18:01:00,
2013-10-18 14:06:00,69.3,56.0,29.04,NNE,22,0.0,3.0,64,0.00,,,0.03,Rainwise IP-100,2013-10-18 18:06:00,
2013-10-18 14:11:00,69.0,57.0,29.05,South,180,0.0,1.0,66,0.00,,,0.03,Rainwise IP-100,2013-10-18 18:11:00,
2013-10-18 14:16:00,69.1,56.0,29.04,SSE,157,1.4,4.0,65,0.06,,,0.04,Rainwise IP-100,2013-10-18 18:16:00,
2013-10-18 14:21:00,69.4,56.0,29.04,South,180,0.0,4.0,63,0.06,,,0.04,Rainwise IP-100,2013-10-18 18:21:00,
2013-10-18 14:26:00,69.3,56.0,29.04,South,180,0.0,4.0,62,0.00,,,0.04,Rainwise IP-100,2013-10-18 18:26:00,
2013-10-18 14:31:00,69.2,56.0,29.03,South,180,0.0,2.0,63,0.00,,,0.04,Rainwise IP-100,2013-10-18 18:31:00,
2013-10-18 14:36:00,69.0,56.0,29.04,South,180,0.0,1.0,65,0.00,,,0.04,Rainwise IP-100,2013-10-18 18:36:00,
2013-10-18 14:41:00,68.8,56.0,29.04,NNE,22,1.4,3.0,66,0.00,,,0.04,Rainwise IP-100,2013-10-18 18:41:00,
2013-10-18 14:46:00,68.7,56.0,29.03,North,0,0.0,2.0,66,0.00,,,0.04,Rainwise IP-100,2013-10-18 18:46:00,
2013-10-18 14:51:00,68.7,56.0,29.03,North,0,0.0,1.0,66,0.00,,,0.04,Rainwise IP-100,2013-10-18 18:51:00,
2013-10-18 14:56:00,68.6,56.0,29.03,North,0,1.6,4.0,65,0.00,,,0.04,Rainwise IP-100,2013-10-18 18:56:00,
2013-10-18 15:01:00,68.4,56.0,29.03,North,0,1.4,2.0,64,0.00,,,0.04,Rainwise IP-100,2013-10-18 19:01:00,
2013-10-18 15:06:00,68.5,56.0,29.03,South,180,2.8,2.8,64,0.00,,,0.04,Rainwise IP-100,2013-10-18 19:06:00,
2013-10-18 15:11:00,68.6,55.0,29.03,SE,135,0.0,4.0,63,0.00,,,0.04,Rainwise IP-100,2013-10-18 19:11:00,
2013-10-18 15:16:00,68.5,55.0,29.03,NW,315,0.0,1.0,63,0.00,,,0.04,Rainwise IP-100,2013-10-18 19:16:00,
2013-10-18 15:21:00,68.5,56.0,29.02,SSW,202,2.1,2.1,65,0.00,,,0.04,Rainwise IP-100,2013-10-18 19:21:00,
2013-10-18 15:26:00,68.3,55.0,29.02,South,180,0.0,2.0,64,0.00,,,0.04,Rainwise IP-100,2013-10-18 19:26:00,
2013-10-18 15:31:00,68.1,54.0,29.02,South,180,2.6,2.6,63,0.00,,,0.04,Rainwise IP-100,2013-10-18 19:31:00,
2013-10-18 15:36:00,68.1,54.0,29.02,South,180,0.0,4.0,62,0.00,,,0.04,Rainwise IP-100,2013-10-18 19:36:00,
2013-10-18 15:41:00,68.1,54.0,29.02,ESE,112,0.0,4.0,63,0.00,,,0.04,Rainwise IP-100,2013-10-18 19:41:00,
2013-10-18 15:46:00,68.1,55.0,29.02,ESE,112,0.0,1.0,64,0.00,,,0.04,Rainwise IP-100,2013-10-18 19:46:00,
2013-10-18 15:51:00,68.2,55.0,29.02,South,180,0.0,3.0,64,0.00,,,0.04,Rainwise IP-100,2013-10-18 19:51:00,
2013-10-18 15:56:00,68.7,56.0,29.02,South,180,0.0,1.0,65,0.00,,,0.04,Rainwise IP-100,2013-10-18 19:56:00,
2013-10-18 16:01:00,69.4,56.0,29.02,South,180,1.2,2.0,63,0.00,,,0.04,Rainwise IP-100,2013-10-18 20:01:00,
2013-10-18 16:06:00,69.9,56.0,29.02,South,180,0.0,3.0,61,0.00,,,0.04,Rainwise IP-100,2013-10-18 20:06:00,
2013-10-18 16:11:00,70.1,56.0,29.02,South,180,2.1,3.0,61,0.00,,,0.04,Rainwise IP-100,2013-10-18 20:11:00,
2013-10-18 16:16:00,70.0,56.0,29.02,South,180,0.0,3.0,61,0.00,,,0.04,Rainwise IP-100,2013-10-18 20:16:00,
2013-10-18 16:21:00,69.8,56.0,29.02,South,180,0.0,0.0,61,0.00,,,0.04,Rainwise IP-100,2013-10-18 20:21:00,
2013-10-18 16:26:00,69.6,56.0,29.02,South,180,0.0,2.0,61,0.00,,,0.04,Rainwise IP-100,2013-10-18 20:26:00,
2013-10-18 16:31:00,69.5,56.0,29.02,South,180,0.0,1.0,62,0.00,,,0.04,Rainwise IP-100,2013-10-18 20:31:00,
2013-10-18 16:36:00,69.4,56.0,29.02,South,180,0.0,2.0,64,0.00,,,0.04,Rainwise IP-100,2013-10-18 20:36:00,
2013-10-18 16:41:00,69.3,56.0,29.02,South,180,0.0,2.0,62,0.00,,,0.04,Rainwise IP-100,2013-10-18 20:41:00,
2013-10-18 16:46:00,69.3,55.0,29.02,NNE,22,1.9,0.0,61,0.00,,,0.04,Rainwise IP-100,2013-10-18 20:46:00,
2013-10-18 16:51:00,69.0,56.0,29.02,NNE,22,0.0,2.0,64,0.00,,,0.04,Rainwise IP-100,2013-10-18 20:51:00,
2013-10-18 16:56:00,68.6,56.0,29.01,NNE,22,0.0,1.0,66,0.00,,,0.04,Rainwise IP-100,2013-10-18 20:56:00,
2013-10-18 17:01:00,68.3,56.0,29.02,NNE,22,0.0,0.0,67,0.00,,,0.04,Rainwise IP-100,2013-10-18 21:01:00,
2013-10-18 17:06:00,68.0,57.0,29.01,NNE,22,0.0,0.0,68,0.00,,,0.04,Rainwise IP-100,2013-10-18 21:06:00,
2013-10-18 17:11:00,67.7,57.0,29.01,NNE,22,0.0,0.0,70,0.00,,,0.04,Rainwise IP-100,2013-10-18 21:11:00,
2013-10-18 17:16:00,67.3,57.0,29.02,NNE,22,0.0,0.0,70,0.00,,,0.04,Rainwise IP-100,2013-10-18 21:16:00,
2013-10-18 17:21:00,67.0,57.0,29.02,NNE,22,0.0,0.0,70,0.00,,,0.04,Rainwise IP-100,2013-10-18 21:21:00,
2013-10-18 17:26:00,66.8,57.0,29.02,NNE,22,0.0,0.0,71,0.00,,,0.04,Rainwise IP-100,2013-10-18 21:26:00,
2013-10-18 17:31:00,66.5,57.0,29.02,NNE,22,0.0,0.0,71,0.00,,,0.04,Rainwise IP-100,2013-10-18 21:31:00,
2013-10-18 17:36:00,66.3,56.0,29.02,NNE,22,0.0,0.0,71,0.00,,,0.04,Rainwise IP-100,2013-10-18 21:36:00,
2013-10-18 17:41:00,66.1,56.0,29.02,NNE,22,0.0,0.0,72,0.00,,,0.04,Rainwise IP-100,2013-10-18 21:41:00,
2013-10-18 17:46:00,65.8,56.0,29.02,NNE,22,0.0,0.0,73,0.00,,,0.04,Rainwise IP-100,2013-10-18 21:46:00,
2013-10-18 17:51:00,65.4,57.0,29.02,NNE,22,0.0,0.0,74,0.00,,,0.04,Rainwise IP-100,2013-10-18 21:51:00,
2013-10-18 17:56:00,65.2,57.0,29.02,NNE,22,0.0,0.0,75,0.00,,,0.04,Rainwise IP-100,2013-10-18 21:56:00,
2013-10-18 18:01:00,65.1,57.0,29.02,NNE,22,0.0,0.0,76,0.00,,,0.04,Rainwise IP-100,2013-10-18 22:01:00,
2013-10-18 18:06:00,64.8,57.0,29.02,NNE,22,0.0,0.0,78,0.00,,,0.04,Rainwise IP-100,2013-10-18 22:06:00,
2013-10-18 18:11:00,64.5,58.0,29.02,NNE,22,0.0,0.0,80,0.00,,,0.04,Rainwise IP-100,2013-10-18 22:11:00,
2013-10-18 18:16:00,64.3,58.0,29.02,NNE,22,0.0,0.0,81,0.00,,,0.04,Rainwise IP-100,2013-10-18 22:16:00,
2013-10-18 18:21:00,64.1,58.0,29.02,NNE,22,0.0,0.0,81,0.00,,,0.04,Rainwise IP-100,2013-10-18 22:21:00,
2013-10-18 18:26:00,63.9,58.0,29.02,NNE,22,0.0,0.0,81,0.00,,,0.04,Rainwise IP-100,2013-10-18 22:26:00,
2013-10-18 18:31:00,63.6,57.0,29.02,NNE,22,0.0,0.0,82,0.00,,,0.04,Rainwise IP-100,2013-10-18 22:31:00,
2013-10-18 18:36:00,63.3,57.0,29.02,NNE,22,0.0,0.0,82,0.00,,,0.04,Rainwise IP-100,2013-10-18 22:36:00,
2013-10-18 18:41:00,63.1,57.0,29.02,NNE,22,0.0,0.0,82,0.00,,,0.04,Rainwise IP-100,2013-10-18 22:41:00,
2013-10-18 18:46:00,62.8,57.0,29.02,NNE,22,0.0,0.0,83,0.00,,,0.04,Rainwise IP-100,2013-10-18 22:46:00,
2013-10-18 18:51:00,62.4,57.0,29.02,NNE,22,0.0,0.0,84,0.00,,,0.04,Rainwise IP-100,2013-10-18 22:51:00,
2013-10-18 18:56:00,62.2,57.0,29.02,NNE,22,0.0,0.0,84,0.00,,,0.04,Rainwise IP-100,2013-10-18 22:56:00,
2013-10-18 19:01:00,61.9,57.0,29.03,NNE,22,0.0,0.0,84,0.00,,,0.04,Rainwise IP-100,2013-10-18 23:01:00,
2013-10-18 19:06:00,61.7,57.0,29.02,NNE,22,0.0,0.0,85,0.00,,,0.04,Rainwise IP-100,2013-10-18 23:06:00,
2013-10-18 19:11:00,61.5,57.0,29.03,NNE,22,0.0,0.0,85,0.00,,,0.04,Rainwise IP-100,2013-10-18 23:11:00,
2013-10-18 19:16:00,61.0,56.0,29.03,NNE,22,0.0,0.0,86,0.00,,,0.04,Rainwise IP-100,2013-10-18 23:16:00,
2013-10-18 19:21:00,60.7,56.0,29.03,NNE,22,0.0,0.0,86,0.00,,,0.04,Rainwise IP-100,2013-10-18 23:21:00,
2013-10-18 19:26:00,60.5,56.0,29.03,NNE,22,0.0,0.0,87,0.00,,,0.04,Rainwise IP-100,2013-10-18 23:26:00,
2013-10-18 19:31:00,60.2,56.0,29.03,NNE,22,0.0,0.0,88,0.00,,,0.04,Rainwise IP-100,2013-10-18 23:31:00,
2013-10-18 19:36:00,59.9,56.0,29.03,NNE,22,0.0,0.0,88,0.00,,,0.04,Rainwise IP-100,2013-10-18 23:36:00,
2013-10-18 19:41:00,59.6,56.0,29.04,NNE,22,0.0,0.0,88,0.00,,,0.04,Rainwise IP-100,2013-10-18 23:41:00,
2013-10-18 19:46:00,59.3,55.0,29.03,NNE,22,0.0,0.0,88,0.00,,,0.04,Rainwise IP-100,2013-10-18 23:46:00,
2013-10-18 19:51:00,59.1,56.0,29.04,NNE,22,0.0,0.0,89,0.00,,,0.04,Rainwise IP-100,2013-10-18 23:51:00,
2013-10-18 19:56:00,58.9,56.0,29.03,NNE,22,0.0,0.0,89,0.00,,,0.04,Rainwise IP-100,2013-10-18 23:56:00,
2013-10-18 20:01:00,58.8,56.0,29.04,NNE,22,0.0,0.0,89,0.00,,,0.04,Rainwise IP-100,2013-10-19 00:01:00,
2013-10-18 20:06:00,58.4,55.0,29.03,NNE,22,0.0,0.0,90,0.00,,,0.04,Rainwise IP-100,2013-10-19 00:06:00,
2013-10-18 20:11:00,58.1,55.0,29.03,NNE,22,0.0,0.0,90,0.00,,,0.04,Rainwise IP-100,2013-10-19 00:11:00,
2013-10-18 20:16:00,58.0,55.0,29.03,NNE,22,0.0,0.0,90,0.00,,,0.04,Rainwise IP-100,2013-10-19 00:16:00,
2013-10-18 20:21:00,57.9,56.0,29.03,NNE,22,0.0,0.0,91,0.00,,,0.04,Rainwise IP-100,2013-10-19 00:21:00,
2013-10-18 20:26:00,57.7,55.0,29.03,NNE,22,0.0,0.0,91,0.00,,,0.04,Rainwise IP-100,2013-10-19 00:26:00,
2013-10-18 20:31:00,57.5,55.0,29.02,NNE,22,0.0,0.0,92,0.00,,,0.04,Rainwise IP-100,2013-10-19 00:31:00,
2013-10-18 20:36:00,57.3,54.0,29.03,NNE,22,0.0,0.0,92,0.00,,,0.04,Rainwise IP-100,2013-10-19 00:36:00,
2013-10-18 20:41:00,57.1,54.0,29.04,NNE,22,0.0,0.0,92,0.00,,,0.04,Rainwise IP-100,2013-10-19 00:41:00,
2013-10-18 20:46:00,57.0,54.0,29.04,NNE,22,0.0,0.0,92,0.00,,,0.04,Rainwise IP-100,2013-10-19 00:46:00,
2013-10-18 20:51:00,56.9,55.0,29.03,NNE,22,0.0,0.0,93,0.00,,,0.04,Rainwise IP-100,2013-10-19 00:51:00,
2013-10-18 20:56:00,56.8,54.0,29.04,NNE,22,0.0,0.0,93,0.00,,,0.04,Rainwise IP-100,2013-10-19 00:56:00,
2013-10-18 21:01:00,56.7,54.0,29.03,NNE,22,0.0,0.0,93,0.00,,,0.04,Rainwise IP-100,2013-10-19 01:01:00,
2013-10-18 21:06:00,56.6,54.0,29.03,NNE,22,0.0,0.0,94,0.00,,,0.04,Rainwise IP-100,2013-10-19 01:06:00,
2013-10-18 21:11:00,56.4,54.0,29.03,NNE,22,0.0,0.0,94,0.00,,,0.04,Rainwise IP-100,2013-10-19 01:11:00,
2013-10-18 21:16:00,56.3,54.0,29.03,NNE,22,0.0,0.0,94,0.00,,,0.04,Rainwise IP-100,2013-10-19 01:16:00,
2013-10-18 21:21:00,56.3,54.0,29.04,NNE,22,0.0,0.0,94,0.00,,,0.04,Rainwise IP-100,2013-10-19 01:21:00,
2013-10-18 21:26:00,56.3,54.0,29.04,NNE,22,0.0,0.0,94,0.00,,,0.04,Rainwise IP-100,2013-10-19 01:26:00,
2013-10-18 21:31:00,56.2,54.0,29.03,NNE,22,0.0,0.0,95,0.00,,,0.04,Rainwise IP-100,2013-10-19 01:31:00,
2013-10-18 21:36:00,56.1,54.0,29.02,NNE,22,0.0,0.0,95,0.00,,,0.04,Rainwise IP-100,2013-10-19 01:36:00,
2013-10-18 21:41:00,56.1,54.0,29.02,NNE,22,0.0,0.0,95,0.00,,,0.04,Rainwise IP-100,2013-10-19 01:41:00,
2013-10-18 21:46:00,56.1,54.0,29.03,NNE,22,0.0,0.0,95,0.00,,,0.04,Rainwise IP-100,2013-10-19 01:46:00,
2013-10-18 21:51:00,56.0,54.0,29.04,NNE,22,0.0,0.0,95,0.00,,,0.04,Rainwise IP-100,2013-10-19 01:51:00,
2013-10-18 21:56:00,55.9,54.0,29.04,NNE,22,0.0,0.0,95,0.00,,,0.04,Rainwise IP-100,2013-10-19 01:56:00,
2013-10-18 22:01:00,55.8,54.0,29.04,NNE,22,0.0,0.0,95,0.00,,,0.04,Rainwise IP-100,2013-10-19 02:01:00,
2013-10-18 22:06:00,55.8,54.0,29.05,NNE,22,0.0,0.0,95,0.00,,,0.04,Rainwise IP-100,2013-10-19 02:06:00,
2013-10-18 22:11:00,55.7,54.0,29.05,NNE,22,0.0,0.0,95,0.00,,,0.04,Rainwise IP-100,2013-10-19 02:11:00,
2013-10-18 22:16:00,55.7,54.0,29.05,NNE,22,0.0,0.0,95,0.00,,,0.04,Rainwise IP-100,2013-10-19 02:16:00,
2013-10-18 22:21:00,55.7,54.0,29.04,NNE,22,0.0,0.0,95,0.00,,,0.04,Rainwise IP-100,2013-10-19 02:21:00,
2013-10-18 22:26:00,55.7,54.0,29.05,NNE,22,0.0,0.0,95,0.00,,,0.04,Rainwise IP-100,2013-10-19 02:26:00,
2013-10-18 22:31:00,55.6,54.0,29.05,NNE,22,0.0,0.0,96,0.00,,,0.04,Rainwise IP-100,2013-10-19 02:31:00,
2013-10-18 22:36:00,55.6,54.0,29.05,NNE,22,0.0,0.0,96,0.00,,,0.04,Rainwise IP-100,2013-10-19 02:36:00,
2013-10-18 22:41:00,55.5,54.0,29.06,NNE,22,0.0,0.0,96,0.00,,,0.04,Rainwise IP-100,2013-10-19 02:41:00,
2013-10-18 22:46:00,55.4,54.0,29.06,NNE,22,0.0,0.0,96,0.00,,,0.04,Rainwise IP-100,2013-10-19 02:46:00,
2013-10-18 22:51:00,55.4,54.0,29.06,NNE,22,0.0,0.0,96,0.00,,,0.04,Rainwise IP-100,2013-10-19 02:51:00,
2013-10-18 22:56:00,55.4,54.0,29.06,NNE,22,0.0,0.0,96,0.00,,,0.04,Rainwise IP-100,2013-10-19 02:56:00,
2013-10-18 23:01:00,55.3,54.0,29.05,NNE,22,0.0,0.0,96,0.00,,,0.04,Rainwise IP-100,2013-10-19 03:01:00,
2013-10-18 23:06:00,55.3,54.0,29.06,NNE,22,0.0,0.0,96,0.00,,,0.04,Rainwise IP-100,2013-10-19 03:06:00,
2013-10-18 23:11:00,55.3,54.0,29.06,NNE,22,0.0,0.0,96,0.00,,,0.04,Rainwise IP-100,2013-10-19 03:11:00,
2013-10-18 23:16:00,55.3,54.0,29.06,NNE,22,0.0,0.0,96,0.00,,,0.04,Rainwise IP-100,2013-10-19 03:16:00,
2013-10-18 23:21:00,55.2,54.0,29.06,NNE,22,0.0,0.0,96,0.06,,,0.05,Rainwise IP-100,2013-10-19 03:21:00,
2013-10-18 23:26:00,55.0,54.0,29.07,NNE,22,0.0,0.0,96,0.06,,,0.05,Rainwise IP-100,2013-10-19 03:26:00,
2013-10-18 23:31:00,55.0,54.0,29.07,NNE,22,0.0,0.0,96,0.00,,,0.05,Rainwise IP-100,2013-10-19 03:31:00,
2013-10-18 23:36:00,54.9,54.0,29.06,NNE,22,0.0,0.0,96,0.00,,,0.05,Rainwise IP-100,2013-10-19 03:36:00,
2013-10-18 23:41:00,54.8,53.0,29.06,NNE,22,0.0,0.0,96,0.00,,,0.05,Rainwise IP-100,2013-10-19 03:41:00,
2013-10-18 23:46:00,54.7,53.0,29.06,NNE,22,0.0,0.0,96,0.00,,,0.05,Rainwise IP-100,2013-10-19 03:46:00,
2013-10-18 23:51:00,54.6,53.0,29.06,NNE,22,0.0,0.0,96,0.00,,,0.05,Rainwise IP-100,2013-10-19 03:51:00,
2013-10-18 23:56:00,54.5,53.0,29.05,NNE,22,0.0,0.0,96,0.00,,,0.05,Rainwise IP-100,2013-10-19 03:56:00,